Monday, May 30, 2016
20:21 UTC
  |  Log In   |  Register Free
Airport Search:

Skyhaven Airport
(KRCM)

Skyhaven Airport Diagram
No Airport Diagram Available

FAA data valid effective Mar 31 2016 - May 26 2016 (unless otherwise noted).

 
 
 
 
 
 
 
 
 
 
 
 
 
 
Summary: Skyhaven (RCM)

Weather Summary


METAR for KRCM is not available. Closest METAR is for KSZL
KRCM  (most recent observation was updatred at 30:20 UTC)
302015Z AUTO 15005KT 10SM CLR 27/17 A3000 RMK AO2 LTG DSNT S AND SW

KSZL  (12.4 nm NW)   (most recent observation was updated at 30:19 UTC)
301958Z AUTO 18009KT 10SM FEW045 SCT120 27/19 A2999 RMK AO2 LTG DSNT S SLP152 T02700188 $

KGLY  (26.3 nm NW)   (most recent observation was updated at 30:20 UTC)
302015Z AUTO 20014G21KT 4SM -TSRA SCT021 BKN036 OVC043 20/18 A3009 RMK AO2 LTG DSNT ALQDS P0001

TAF for KRCM is not available.
KSZL  (12.4 nm NW)   (most recent observation was updatred at 30:19 UTC)
AMD 301955Z 3019/0101 17012KT 8000 -SHRA VCTS BKN040CB QNH2995INS TEMPO 3020/3021 6000 -TSRA BKN040CB TEMPO 3021/3101 17025G40KT 3200 TSRAGR BKN035CB BECMG 3101/3102 18009KT 9999 NSW SCT050 QNH2993INS BECMG 3108/3109 VRB06KT 6000 BR OVC045 611505 QNH2994INS BECMG 3114/3115 19010KT 9999 NSW SCT040 QNH2987INS BECMG 3121/3122 19012G18KT 8000 -SHRA OVC035 QNH2985INS TX31/3021Z TN16/3112Z AMD 301900


GlobalAir.com is loading additional information.
 Current Weather at RCM
81.0 F° (27.0 C°)
Fair
Southeast winds at 8.1 mph
Pressure:
30.01 in
Humidity:
58%
Wind:
Southeast at 8.1 MPH (7 KT)
Dew Point:
64.4 F° (18.0 C°)
Visibility:
10.00 mi
RCM NOAA Radar

Runway Summary

ID Dimensions Surface Instrument Approaches
01/19 75 ft x 4206 ft Asphalt, Excellent Condition RNAV (GPS) RWY 01
14/32 60 ft x 2801 ft Asphalt, Excellent Condition N/A

Communications Summary


CTAF123.00
UNICOM123.00
ATISN/A
WX AWOS-3
WHITEMAN APPROACH127.45
WHITEMAN DEPARTURE125.925
CLEARANCE DELIVERYN/A

Terminal Procedures Summary


Approaches
More Approaches
Special Minimums

Closest Alternate Airports with Instrument Procedures

KHIG - Higginsville Industrial Municipal - 21 nm NE from RCM

K3GV - East Kansas City - 27.3 nm NW from RCM

K4K3 - Lexington Municipal - 30.2 nm NW from RCM

KGLY - Clinton Memorial - 30.3 nm SE from RCM

KLRY - Lawrence Smith Memorial - 31.6 nm SW from RCM

KLXT - Lee's Summit Municipal - 32.9 nm NW from RCM

KDMO - Sedalia Memorial - 34.2 nm SE from RCM

KMHL - Marshall Memorial Municipal - 38.8 nm NE from RCM

K3EX - Excelsior Springs Memorial - 43.7 nm NW from RCM

KBUM - Butler Memorial - 44.9 nm SW from RCM

Find All Airport Services Find A Hotel Find A Rental Car Find A Golf Course Find A Restaurant $100 Hamburger



FBO's on the Field
FBO Company Facility Photos Services Transportation Aviation Fuel Prices: Prices include tax
Catering Weather Repair Courtesy Rental Type 100LL JetA JetA+ MOGAS 8087
 
UCM Aviation

Currently rated 5 by 1 person
FS:Epic
Last Updated: May-06
Login to update fuel prices
SS:
Contact UCM AviationMore FBO Information
 
Add another FBO Facility Photos Catering Weather Repair Courtesy Rental Type 100LL JetA JetA+ MOGAS 8087
Services Transportation Aviation Fuel Prices: Prices include tax


model-print
model-print
model-print
model-print